Probability
0 0 0 0 0 0 0 0 0 0 0 0 0 0 0 0 0 0 0 0 0 0 0 0 0 0 0 0 0 0 0 0 0 0 0 0 0 0 0 0 0 0 0 0
0 0 0 0 0 0 0 0 0 0 0 0 0 0 0 0 0 0 0 0 0 0 0 0 0 0 0 0 0 0 0 0 0 0 0 0 0 0 0 0 0 0 0 0
0 0 0 0 0 0 0 0 0 0 0 0 0 0 0 0 0 0 0 0 0 0 0 0 0 0 0 0 0 0 0 0 0 0 0 0 0 0 0 0 0 0 0 0
0 0 0 0 0 0 0 0 0 0 0 0 0 0 0 0 0 0 0 0 0 0 0 0 0 0 0 0 0 0 0 0 0 0 0 0 0 0 0 0 0 0 0 0
0 0 0 0 0 0 0 0 0 0 0 0 0 0 0 0 0 0 0 0 0 0 0 0 0 0 0 0 0 0 0 0 0 0 0 0 0 0 0 0 0 0 0 0
0 0 0 0 0 0 0 0 0 0 0 0 0 0 0 0 0 0 0 0 0 0 0 0 0 0 0 0 0 0 0 0 0 0 0 0 0 0 0 0 0 0 0 0
0 0 0 0 0 0 0 0 0 0 0 0 0 0 0 0 0 0 0 0 0 0 0 0 0 0 0 0 0 0 0 0 0 0 0 0 0 0 0 0 0 0 0 0
0 0 0 0 0 0 0 0 0 0 0 0 0 0 0 0 0 0 0 0 0 0 0 0 0 0 0 0 0 0 0 0 0 0 0 0 0 0 0 0 0 0 0 0
0 0 0 0 0 0 0 0 0 0 0 0 0 0 0 0 0 0 0 0 0 0 0 0 0 0 0 0 0 0 0 0 0 0 0 0 0 0 0 0 0 0 0 0
0 0 0 0 0 0 0 0 0 0 0 0 0 0 0 0 0 0 0 0 0 0 0 0 0 0 0 0 0 0 0 0 0 0 0 0 0 0 0 0 0 0 0 0
0 0 0 0 0 0 0 0 0 0 0 0 0 0 0 0 0 0 0 0 0 0 0 0 0 0 0 0 0 0 0 0 0 0 0 0 0 0 0 0 0 0 0 0
0 0 0 0 0 0 0 0 0 0 0 0 0 0 0 0 0 0 0 0 0 0 0 0 0 0 0 0 0 0 0 0 0 0 0 0 0 0 0 0 0 0 0 0
0 0 0 0 0 0 0 0 0 0 0 0 0 0 0 0 0 0 0 0 0 0 0 0 0 0 0 0 0 0 0 0 0 0 0 0 0 0 0 0 0 0 0 0
0 0 0 0 0 0 0 0 0 0 0 0 0 0 0 0 0 0 0 0 0 0 0 0 0 0 0 0 0 0 0 0 0 0 0 0 0 0 0 0 0 0 0 0
0 0 0 0 0 0 0 0 0 0 0 0 0 0 0 0 0 0 0 0 0 0 0 0 0 0 0 0 0 0 0 0 0 0 0 0 0 0 0 0 0 0 0 0
0 0 0 0 0 0 0 0 0 0 0 0 0 0 0 0 0 0 0 0 0 0 0 0 0 0 0 0 0 0 0 0 0 0 0 0 0 0 0 0 0 0 0 0
0 0 0 0 0 0 0 0 0 0 0 0 0 0 0 0 0 0 0 0 0 0 0 0 0 0 0 0 0 0 0 0 0 0 0 0 0 0 0 0 0 0 0 0
0 0 0 0 0 0 0 0 0 0 0 0 0 0 0 0 0 0 0 0 0 0 0 0 0 0 0 0 0 0 0 0 0 0 0 0 0 0 0 0 0 0 0 0
0 0 0 0 0 0 0 0 0 0 0 0 0 0 0 0 0 0 0 0 0 0 0 0 0 0 0 0 0 0 0 0 0 0 0 0 0 0 0 0 0 0 0 0
0 0 0 0 0 0 0 0 0 0 0 0 0 0 0 0 0 0 0 0 0 0 0 0 0 0 0 0 0 0 0 0 0 0 0 0 0 0 0 0 0 0 0 0
0 0 0 0 0 0 0 0 0 0 0 0 0 0 0 0 0 0 0 0 0 0 0 0 0 0 0 0 0 0 0 0 0 0 0 0 0 0 0 0 0 0 0 0
0 0 0 0 0 0 0 0 0 0 0 0 0 0 0 0 0 0 0 0 0 0 0 0 0 0 0 0 0 0 0 0 0 0 0 0 0 0 0 0 0 0 0 0
0 0 0 0 0 0 0 0 0 0 0 0 0 0 0 0 0 0 0 0 0 0 0 0 0 0 0 0 0 0 0 0 0 0 0 0 0 0 0 0 0 0 0 0
0 0 0 0 0 0 0 0 0 0 0 0 0 0 0 0 0 0 0 0 0 0 0 0 0 0 0 0 0 0 0 0 0 0 0 0 0 0 0 0 0 0 0 0
0 0 0 0 0 0 0 0 0 0 0 0 0 0 0 0 0 0 0 0 0 0 0 0 0 0 0 0 0 0 0 0 0 0 0 0 0 0 0 0 0 0 0 0
0 0 0 0 0 0 0 0 0 0 0 0 0 0 0 0 0 0 0 0 0 0 0 0 0 0 0 0 0 0 0 0 0 0 0 0 0 0 0 0 0 0 0 0
0 0 0 0 0 0 0 0 0 0 0 0 0 0 0 0 0 0 0 0 0 0 0 0 0 0 0 0 0 0 0 0 0 0 0 0 0 0 0 0 0 0 0 0
Wind_Speed
7 10 17 16 19 20 20 16 13 15 19 16 9 8 7 7 7 7 6 6 7 7 6 6 6 6 6 6 6 6 6 6 7 5 5 5 5 6 6 7 8 8 8 8
6 7 16 16 20 21 23 23 20 16 20 15 9 8 8 8 8 8 8 8 7 7 7 7 7 7 6 6 6 6 6 6 5 4 4 4 4 4 5 5 6 7 8 9
8 6 7 14 25 26 24 23 23 24 26 9 8 10 10 9 9 9 9 8 7 7 7 7 7 7 8 7 5 6 5 4 4 4 4 4 4 4 5 6 6 7 7 8
6 9 14 12 13 16 20 23 22 22 18 12 11 9 8 8 9 8 8 7 6 5 5 5 5 6 6 5 6 6 5 4 4 4 4 4 4 4 4 4 5 6 6 7
7 9 7 6 15 22 22 22 22 24 21 12 7 5 8 7 7 8 7 6 5 5 4 4 5 5 6 5 5 5 5 5 5 5 5 5 5 5 4 4 4 4 5 6
7 8 13 13 11 13 11 20 20 21 20 13 9 12 12 7 7 6 5 3 3 3 3 4 3 5 6 6 5 6 5 5 4 5 5 6 5 5 3 4 4 4 4 5
7 6 9 8 10 15 17 18 11 15 15 12 16 16 8 7 5 4 3 1 2 3 3 2 3 5 5 5 5 4 4 4 4 4 4 4 4 4 4 4 5 4 4 4
8 7 11 7 13 16 11 3 4 9 11 12 12 8 5 5 5 4 4 3 4 4 3 3 3 5 4 3 3 4 5 5 4 4 4 4 5 5 5 5 6 5 4 4
10 9 4 5 7 4 3 4 3 3 3 5 6 6 5 4 4 4 4 4 4 5 5 4 3 3 4 2 3 5 5 4 4 4 4 4 5 6 5 5 4 4 4 4
4 5 4 2 1 0 1 2 2 2 2 3 5 5 5 5 5 5 5 4 4 5 5 4 3 4 3 3 4 5 5 4 4 4 4 3 3 3 4 4 4 5 5 5
5 2 1 2 1 1 1 2 3 3 3 3 6 6 6 6 5 5 5 4 4 5 5 5 4 5 4 3 4 5 5 4 4 3 4 3 3 2 2 2 3 4 4 5
5 3 3 3 1 0 2 2 2 4 4 4 5 7 7 7 6 6 6 5 6 6 6 6 5 6 5 3 3 4 4 4 3 3 3 3 3 2 2 2 2 3 4 4
3 3 2 1 2 2 1 2 3 4 5 6 6 7 8 8 7 7 7 7 6 6 6 6 6 6 5 4 3 4 4 4 3 3 3 3 3 3 2 1 1 2 3 5
5 4 1 1 2 3 4 5 7 8 8 7 7 8 9 9 8 8 7 6 7 7 7 6 7 6 5 4 4 4 4 4 3 2 2 2 2 2 2 2 1 0 1 4
7 5 2 3 4 5 5 6 8 7 7 8 7 8 8 9 9 8 6 6 8 9 8 7 7 6 6 5 4 4 3 3 2 2 2 2 2 2 2 2 2 1 1 1
7 4 4 5 5 5 6 6 7 6 6 6 7 8 8 9 9 8 8 7 7 8 7 7 7 6 6 5 4 4 3 4 3 2 2 2 1 1 1 1 1 2 2 2
3 2 3 2 4 5 5 5 5 6 6 6 6 7 8 9 9 9 8 8 8 8 7 7 6 5 6 6 5 3 3 3 4 3 2 1 1 1 0 1 1 1 2 3
4 3 4 2 3 4 6 7 7 7 6 5 6 7 8 8 8 7 5 5 6 8 8 6 5 5 5 6 4 3 3 2 2 2 2 1 1 1 0 0 1 1 1 2
6 6 7 7 6 6 6 6 7 6 6 6 7 8 7 7 6 5 5 5 6 6 6 7 7 6 5 6 5 3 3 3 2 2 1 1 1 1 0 1 1 1 1 1
7 7 7 8 8 7 6 6 6 6 6 6 7 8 8 6 5 5 5 6 4 3 3 4 4 4 5 5 6 3 3 3 2 2 2 1 1 1 1 1 1 2 2 2
6 7 7 7 7 7 7 6 6 6 6 6 6 6 5 4 4 3 3 4 3 4 4 4 3 3 4 4 4 3 2 2 2 1 1 1 1 1 1 2 2 2 2 2
5 5 5 5 5 6 6 6 6 6 6 6 6 5 4 4 4 4 4 2 1 4 3 3 2 3 4 4 2 2 2 2 1 1 1 1 2 2 2 2 2 3 3 3
3 4 4 4 4 3 4 5 5 5 5 4 4 4 3 2 2 1 1 1 2 3 3 2 4 4 4 2 2 2 1 1 1 1 1 2 2 2 3 3 3 3 3 3
3 4 4 3 2 3 4 4 4 3 3 2 2 1 1 1 1 1 0 1 3 3 3 3 5 5 4 2 1 1 1 2 2 2 2 2 3 3 3 3 4 4 4 5
2 2 2 2 3 2 2 2 2 2 2 1 1 0 0 1 1 1 2 2 4 4 3 4 5 5 3 2 2 2 2 2 3 3 3 3 3 4 4 4 4 4 4 4
1 1 1 1 1 1 1 1 1 1 1 1 1 1 1 1 2 2 2 3 4 4 4 3 3 3 3 3 3 3 3 3 4 4 4 4 5 5 5 5 6 5 5 5
1 1 1 1 1 1 1 1 1 2 1 2 2 2 2 2 2 3 3 3 3 4 3 3 3 3 3 4 4 4 4 4 4 4 5 5 5 5 5 6 5 5 5 5
Wind_Direction
207 165 170 189 196 197 205 207 210 223 231 232 209 205 205 198 194 196 202 206 209 211 211 209 208 211 209 205 197 193 199 209 217 214 209 200 194 191 188 188 187 180 175 172
208 190 181 191 198 201 209 214 223 233 242 233 218 220 221 214 203 207 215 218 216 213 208 208 207 204 203 203 196 187 199 209 203 193 191 192 189 179 177 176 170 167 172 170
192 183 171 204 200 201 208 214 217 227 236 222 213 217 221 220 214 214 218 221 220 215 211 210 205 198 199 196 184 183 195 199 191 182 183 188 179 171 176 175 168 169 170 170
150 159 209 225 200 204 214 220 219 231 239 222 218 220 222 215 211 219 223 225 224 219 214 203 191 184 179 170 172 179 187 191 185 177 178 176 176 180 175 164 169 170 171 171
170 191 225 240 194 197 207 227 221 230 237 229 218 245 248 221 209 214 218 218 216 205 198 183 175 168 158 164 167 177 187 189 186 178 176 175 180 178 165 157 160 161 162 165
173 189 215 225 191 183 192 242 224 222 229 218 197 230 240 205 207 214 217 216 207 177 150 153 160 148 154 168 173 189 186 180 173 173 175 178 176 163 151 150 152 146 152 162
187 201 240 229 168 153 189 231 212 213 222 205 207 224 219 175 188 189 182 172 138 129 131 144 139 140 157 166 187 179 157 151 154 160 164 162 152 144 140 138 136 140 145 147
189 200 234 206 161 179 205 177 175 200 210 207 213 212 190 167 164 145 121 95 96 108 101 86 109 135 149 164 152 132 134 139 145 147 145 145 143 139 138 142 144 145 144 141
194 211 220 171 175 181 153 175 189 191 210 193 193 198 184 161 142 122 114 101 93 110 101 75 78 113 133 127 125 126 127 133 135 133 132 142 149 148 145 149 151 155 158 162
201 226 204 191 132 84 96 158 164 155 165 157 158 147 133 126 117 109 99 97 99 108 107 88 71 76 94 108 119 124 128 128 129 134 135 137 141 148 155 163 165 165 171 171
213 238 184 220 201 197 84 85 81 68 75 118 132 129 127 121 113 106 97 92 97 106 103 90 76 68 67 88 112 117 119 121 125 128 133 134 126 134 153 168 180 176 180 174
210 210 217 230 274 221 151 141 135 119 90 74 109 122 115 108 101 100 96 90 90 89 91 84 76 64 46 52 93 116 117 119 120 122 123 124 123 102 106 124 140 171 172 170
288 303 265 289 26 42 86 80 86 95 105 97 85 101 109 104 96 92 87 84 86 86 85 82 76 60 32 30 66 93 108 112 110 114 122 128 135 143 134 80 104 161 179 184
349 339 299 40 54 56 73 80 81 74 69 78 85 89 96 97 93 87 81 78 82 82 76 74 72 52 19 24 59 75 86 94 101 112 122 130 139 145 149 155 161 203 220 205
355 355 21 64 63 62 71 86 89 81 76 71 74 83 91 98 94 82 71 75 81 73 63 61 59 35 7 20 53 68 75 82 88 97 105 114 121 130 144 158 167 171 154 210
327 7 49 70 71 61 66 80 95 92 83 80 78 79 85 92 89 77 62 61 78 72 55 52 46 16 5 17 38 56 61 67 72 82 88 92 101 119 146 170 186 192 196 196
346 22 25 56 66 61 58 60 77 85 82 80 80 85 91 95 88 77 67 64 75 72 55 45 29 12 15 20 30 44 51 55 60 68 74 81 92 116 158 200 222 228 223 216
14 20 21 51 86 83 68 61 64 67 68 70 77 81 81 84 87 84 79 80 84 70 44 22 18 24 21 19 24 32 45 51 55 60 59 60 55 51 42 255 248 250 254 258
34 40 44 49 57 73 72 63 58 58 57 66 78 79 76 74 75 75 73 69 64 55 19 0 18 29 21 13 21 25 38 45 47 45 45 43 37 17 340 295 283 278 269 256
42 46 53 55 53 61 67 62 62 62 52 58 77 79 73 62 60 68 75 71 53 30 340 349 8 19 16 11 14 17 27 34 36 29 24 21 360 329 312 299 291 288 282 272
41 47 52 57 58 54 52 53 62 63 52 53 68 73 71 56 44 49 74 77 36 10 359 6 17 11 6 1 4 17 24 24 23 16 3 343 325 311 302 295 287 282 281 280
35 45 50 53 62 56 42 43 52 58 57 56 58 62 67 59 50 51 56 70 17 356 357 359 359 353 355 357 1 8 11 9 359 350 335 320 309 301 297 296 290 288 285 283
37 42 48 47 50 55 50 47 46 49 51 48 46 43 44 32 13 36 60 34 357 346 349 333 328 335 353 358 351 349 344 333 317 304 291 283 280 279 281 283 281 281 282 281
37 36 36 32 41 58 52 39 35 41 41 36 36 25 9 12 26 42 34 326 330 328 319 305 315 331 347 336 318 310 300 291 284 281 280 278 275 272 270 272 273 273 272 275
28 24 25 27 36 38 33 24 23 28 22 14 5 354 237 253 248 286 303 299 302 306 299 302 310 317 315 290 282 275 270 266 266 269 269 270 268 267 265 264 264 266 266 266
9 348 340 324 298 310 332 343 334 325 327 321 318 300 281 272 268 272 276 276 276 279 277 276 277 281 273 269 266 266 266 268 269 263 257 259 259 260 260 260 262 261 261 262
281 269 269 280 254 228 236 249 258 270 274 277 285 280 283 284 279 277 277 276 276 275 273 271 268 265 264 264 264 263 261 258 256 256 255 254 255 256 258 259 260 259 259 259